NOAA 16 DEB

Satellite information

Favourite Embed

Satellite Type and Status

DEBRISIN ORBIT

Key statistics

Satellite NOAA 16 DEB at a glance.

Uptime

9168

Days in orbit

Revolutions

≈ 14.4

Per day

Orbit

SSO

Sun Synchronous Orbit

Inclination

99.0

Latest

Satellite identification and parameters

Extended collection of information and parameters for NOAA 16 DEB.

Object identification

Identified? True

Debris? True

Object name: NOAA 16 DEB

International designator: 2000-055T

Object number (NORAD): 41060

Object ID (CCSDS): 41060

Country: UNITED STATES OF AMERICA (US)

Current information (Y/N): Y

RCS size: SMALL

Orbital parameters

Period: 100.111 minutes

Inclination: 98.9763 deg

SMA: 7141.898 km

Apoapsis: 820.961 km

Periapsis: 706.564 km

RAAN: 182.5591 deg

Eccentricy: 0.00800888

Argument of periapsis: 36.459 deg

Mean anomaly: 324.2013 deg

Mean motion: 14.38408759 rev/day

Mean motion (dot): 0.00002892 rev/day2

B* drag term: 0.00092872609 1/REarth

Two-line elements (TLE)

Creation date: Oct. 28, 2025, 2:18 a.m.

Reference frame: TEME

Reference center: EARTH

Epoch: Oct. 27, 2025, 3:53 p.m. UTC

TLE line 0: 0 NOAA 16 DEB

TLE line 1: 1 41060U 00055T 25300.66210238 .00002892 00000-0 92873-3 0 9992

TLE line 2: 2 41060 98.9763 182.5591 0080089 36.4590 324.2013 14.38408759518354

Live tracking on map

Real-time ground track for satellite NOAA 16 DEB.

In-orbit conjunctions

A list of the most updated potential collisions computed for object NOAA 16 DEB.

Target Orbit TCA Probability of collision Miss distance Type
CZ-6A DEB SSO 2024-11-13 16:17:34 0.001383118 129.0 (m) DEBRIS
THOR ABLESTAR DEB LEO 2024-08-25 06:46:41 0.0001889036 256.0 (m) DEBRIS

Associated space launch

The NOAA K, L and M POES satellites begin the fifth generation of improved environmental monitoring in support of NOAA missions. The instrument payload has significant improvements and additions/deletions. The instrument changes have effected the spacecraft subsystems and data formats.

NOAA 16 DEB was lifted into orbit during the mission ‘Titan II SLV | NOAA 16’, on board a Titan II SLV space rocket.

The launch took place on Sept. 21, 2000, 10:22 a.m. from Space Launch Complex 4W.

For more information about the launch, click the button.

Launch to space Titan II SLV | NOAA 16
Titan II SLV | NOAA 16

Agency: N/A

Status: Launch Successful

Launch date: Sept. 21, 2000, 10:22 a.m. UTC

Rocket: Titan II SLV

Launch pad: Space Launch Complex 4W

Location: Vandenberg SFB, CA, USA

...

Latest news about this satellite

There are no fresh news available about this satellite. Check back as we update our databases every day.


Newsletter sign-up

Weekly statistics, charts and insights to help you stay on top of the space industry.